Location: Lafig�re
(44.4503°N, 4.0357°E)
Time: 15:23:14
(UTC+00:00)

Courier 1B Rocket - Visible Passes

Search period start: 23 January 2021 00:00
Search period end: 02 February 2021 00:00
Orbit: 920 x 1202 km, 28.2° (Epoch: 23 January)

Date Brightness Start Highest point End Pass type
(mag) Time Alt. Az. Time Alt. Az. Time Alt. Az.
24 Jan 7.5 05:47:43 10° S 05:50:19 12° SSE 05:52:58 10° SE visible
25 Jan 7.3 06:37:25 10° SSW 06:41:50 18° SSE 06:46:25 10° SE visible
26 Jan 7.3 05:37:32 10° SSW 05:41:06 15° SSE 05:44:48 10° SE visible
27 Jan 7.3 04:38:24 10° S 04:40:27 12° SSE 04:42:32 10° SE visible
27 Jan 7.2 06:28:08 10° SW 06:32:41 19° S 06:37:26 10° SE visible
28 Jan 7.1 05:27:55 10° SSW 05:31:57 17° SSE 05:36:07 10° SE visible
29 Jan 7.1 04:28:53 12° S 04:31:17 14° SSE 04:34:34 10° SE visible
29 Jan 7.1 06:19:04 10° SW 06:23:34 19° S 06:28:15 10° SE visible
30 Jan 7.4 03:31:47 10° SSE 03:31:47 10° SSE 03:32:14 10° SE visible
30 Jan 7.0 05:18:38 10° SW 05:22:50 18° S 05:27:12 10° SE visible
31 Jan 6.8 04:21:01 16° S 04:22:09 16° S 04:25:59 10° SE visible
31 Jan 7.0 06:10:13 10° SW 06:14:28 18° S 06:18:53 10° SE visible
01 Feb 7.4 03:23:51 11° SE 03:23:51 11° SE 03:24:31 10° SE visible
01 Feb 6.8 05:10:13 12° SW 05:13:45 18° S 05:18:04 10° SE visible
